Voltar ao catálogo

THOR ABLESTAR DEB

AtivoLEO
NORAD 336·DEBRIS·🇺🇸 United States

Lançado Jun 29, 1961 de Cape Canaveral Space Force Station

Loading…

Próximas Passagens (próximas 24 horas)

TLE

AtualizadoSource: Space-Track

Época: Sep 7, 2026, 07:40 UTC

1 00336U 61015DN  26250.31950334 -.00000004  00000-0  75543-4 0  9991
2 00336  67.0328   2.5535 0071872  76.6306 315.3673 13.69235714250447

Acompanhe THOR ABLESTAR DEB em tempo real com AllMySat

Download on the App Store